Theta_e
297 295 297 301 306 302 305 312 311 307 312 313 315 323 331 336 348 352 353 356 357 362 360 360 359 358 358 359 359 359 359 359
295 292 298 303 301 305 306 312 310 309 308 312 317 319 329 344 349 350 353 355 360 361 360 360 359 358 358 359 359 359 359 359
292 295 299 302 302 303 305 309 309 309 307 309 315 330 341 344 348 348 351 353 358 360 360 360 359 358 358 358 358 358 359 358
290 295 300 302 303 302 303 306 311 310 308 308 315 321 337 343 343 349 350 353 357 360 360 359 359 358 357 357 357 357 358 358
291 295 298 302 303 299 299 300 304 311 307 309 312 315 337 339 341 346 351 354 355 356 358 359 358 357 357 357 356 356 356 356
291 293 295 300 301 299 300 301 308 311 306 304 312 321 332 336 336 342 350 352 352 354 356 353 354 358 358 357 356 356 356 356
292 292 294 298 296 301 304 302 304 307 310 314 315 334 334 333 336 341 346 350 351 352 353 354 352 355 357 358 357 357 356 356
295 296 294 297 296 298 300 301 300 303 307 313 318 327 331 332 332 336 340 347 350 350 351 351 354 353 352 352 353 353 353 352
295 297 298 296 298 299 298 296 300 301 303 307 312 313 328 332 334 336 340 345 348 349 350 350 352 352 353 353 353 351 351 350
294 296 295 295 298 296 299 300 303 304 305 308 309 309 318 329 334 335 339 342 347 348 347 348 349 349 350 351 352 351 351 351
296 295 294 296 295 295 296 301 303 303 304 309 309 309 309 317 331 336 337 340 345 347 346 347 348 349 348 348 349 350 350 349
293 294 293 293 294 295 298 302 301 302 301 301 309 310 309 312 321 332 337 339 342 345 346 346 348 347 346 348 349 348 348 349
292 293 293 294 293 293 298 300 300 300 301 301 303 308 310 311 320 326 332 338 339 341 344 344 346 345 345 346 347 344 343 343
289 292 294 293 287 295 296 296 297 298 299 300 301 305 308 310 314 320 327 335 337 341 340 341 343 343 343 342 343 344 344 342
287 291 291 290 287 294 297 296 295 296 297 298 299 301 303 308 310 313 321 330 334 338 338 339 339 342 341 340 340 341 342 341
285 290 289 288 288 292 295 294 295 295 296 296 298 299 302 305 305 308 313 324 332 336 338 337 337 339 340 340 340 340 341 341
289 293 289 289 289 292 294 293 293 294 295 296 297 300 301 303 306 307 309 316 327 331 333 337 336 336 336 338 339 338 341 342
289 292 289 289 288 291 292 293 294 295 295 296 296 298 300 301 303 308 311 313 319 328 329 336 339 332 334 333 334 336 337 339
287 290 289 287 285 288 292 293 295 295 296 296 297 297 299 299 301 305 309 313 316 324 330 333 332 324 321 323 326 331 334 336
289 285 281 287 281 286 289 291 292 294 294 295 296 297 297 298 299 302 307 311 315 317 327 332 328 326 322 323 321 325 328 328
Wind_Speed
4 3 4 3 2 2 6 5 1 3 4 2 2 2 3 3 10 11 10 10 11 14 16 19 18 17 18 18 19 19 18 17
4 4 5 3 3 5 4 6 4 1 3 2 2 2 2 10 15 13 9 8 12 15 15 17 19 18 18 19 19 20 20 18
1 5 4 4 3 5 4 6 3 3 3 1 4 4 6 9 12 14 10 7 11 13 14 16 17 17 17 18 19 18 18 17
4 6 2 4 5 5 3 5 7 3 5 4 2 4 7 9 9 10 10 7 10 12 12 13 15 15 15 16 16 19 18 17
3 4 6 2 1 2 4 3 5 5 3 4 5 2 8 8 10 12 11 11 11 11 9 12 13 15 14 14 15 16 17 18
4 4 7 1 3 2 5 6 4 2 4 4 8 6 6 7 6 8 11 11 11 13 10 7 7 13 14 14 14 14 15 16
6 6 5 3 5 5 3 5 4 3 3 5 4 7 7 6 5 5 7 11 11 13 13 10 6 8 11 14 13 12 11 11
5 4 2 4 2 4 4 7 5 6 6 5 6 3 6 8 8 7 10 14 12 12 14 13 9 7 6 6 4 4 5 5
5 7 4 4 6 4 3 8 7 7 9 6 6 6 6 8 11 15 10 10 12 11 11 14 9 8 5 4 5 3 5 5
4 4 2 5 4 4 7 13 10 10 4 8 8 9 10 8 9 9 11 11 11 10 9 10 6 7 7 7 6 7 8 9
7 9 6 4 8 6 5 11 11 10 4 8 7 6 5 7 4 6 11 12 15 13 13 13 10 8 8 9 9 10 9 9
7 7 6 5 5 5 5 8 8 7 10 4 8 8 5 4 7 8 8 12 13 15 13 12 12 12 10 9 10 7 2 3
5 5 6 4 10 6 4 3 8 10 9 11 8 7 9 11 10 10 9 8 14 14 13 13 13 9 8 7 7 8 8 2
7 3 6 6 9 10 3 4 7 10 9 10 12 9 9 8 8 6 5 11 11 12 14 14 14 11 8 7 7 6 6 10
9 5 2 4 5 5 6 7 8 6 7 8 9 10 9 9 9 10 9 7 9 12 15 17 13 9 9 9 9 7 7 8
5 5 1 5 9 10 11 4 9 9 8 7 9 13 10 6 8 9 10 8 7 8 11 10 5 4 3 4 6 6 8 9
8 13 3 8 8 12 10 6 9 8 7 8 8 8 8 8 6 7 8 8 11 9 9 9 5 5 4 7 3 3 6 6
9 11 6 10 10 10 7 7 8 7 9 9 7 8 10 10 9 6 5 9 6 7 6 9 8 3 3 4 3 2 3 4
9 5 3 4 5 6 6 4 6 9 9 7 10 11 11 9 9 9 8 9 10 12 12 8 7 5 4 4 3 3 3 4
6 1 7 4 12 8 6 10 7 10 9 10 11 10 8 10 10 10 12 7 8 7 9 11 11 9 8 6 6 4 4 3
Wind_Direction
85 111 185 204 147 160 297 311 316 5 69 23 325 303 188 121 129 133 144 146 155 157 150 148 147 147 146 144 142 139 139 141
91 220 253 235 6 320 2 317 89 169 52 316 193 266 19 143 135 138 144 147 160 160 158 152 149 150 151 149 148 146 147 150
87 258 260 268 319 334 14 296 293 5 159 323 334 75 126 139 141 146 143 145 161 163 163 155 152 151 153 154 151 150 149 149
222 256 231 291 285 329 12 351 309 347 145 210 277 145 168 136 130 131 136 133 160 164 169 161 155 156 158 158 158 155 154 153
205 266 301 208 271 10 337 356 318 339 267 282 274 242 156 143 135 137 139 147 167 170 173 167 162 162 162 165 165 164 162 161
235 207 276 71 348 303 12 288 283 256 230 215 243 64 112 101 110 135 148 157 171 177 176 157 161 170 168 170 175 174 173 174
221 178 239 316 25 305 270 259 339 294 303 274 73 74 96 101 92 121 153 165 170 176 179 172 154 176 179 180 182 184 181 185
219 202 233 272 278 286 313 314 292 302 313 352 112 136 164 167 172 172 181 176 174 178 180 179 178 173 164 175 180 186 179 182
251 240 213 259 278 200 246 294 220 266 290 285 191 202 232 192 187 191 178 181 179 175 180 178 177 171 175 171 170 190 187 182
270 266 273 226 243 261 195 249 255 246 247 262 210 205 208 222 187 175 178 183 173 174 172 184 175 179 182 185 186 187 207 207
271 283 248 286 248 237 260 266 278 290 264 262 242 204 281 285 233 164 175 190 177 177 180 182 182 183 190 196 196 197 194 203
278 264 261 255 264 129 266 275 294 308 307 273 274 215 210 240 238 206 187 191 173 189 187 185 193 189 190 191 197 195 187 182
227 246 247 166 302 190 247 310 316 304 303 301 258 254 232 218 207 209 205 178 180 183 185 190 193 190 197 198 187 180 142 206
283 276 265 122 277 300 159 177 243 270 279 278 277 243 235 238 243 262 280 190 182 184 188 194 197 190 192 182 179 195 181 174
305 230 262 137 289 266 309 333 308 284 295 303 290 284 231 234 229 239 223 234 201 190 189 196 202 195 193 181 178 181 176 206
253 284 130 305 254 277 283 309 288 304 311 305 286 274 300 275 228 246 239 209 252 207 201 195 182 152 149 170 204 178 193 202
262 271 188 242 247 260 266 286 278 274 292 303 283 277 285 285 280 215 239 220 209 204 192 164 156 158 157 201 214 246 224 199
278 264 153 265 252 252 248 236 223 241 278 273 283 290 289 295 298 259 232 229 222 210 205 194 185 151 146 147 180 179 169 210
229 309 274 292 280 257 256 242 264 254 243 270 253 269 279 277 260 275 247 226 212 205 196 198 165 122 99 96 68 112 195 225
255 306 268 131 283 283 242 249 256 266 262 253 267 270 254 267 270 248 247 218 212 209 216 193 169 170 166 176 158 192 171 162